Location: Hillern
(53.0557°N, 9.8577°E)
Time: 00:09:02
(UTC+00:00)

ATLAS 3B R/B - Pass Details

Date: 19 May 2025
Orbit: 935 x 1258 km, 63.8° (Epoch: 15 June)

Event Time Altitude Azimuth Distance (km) Brightness Sun altitude
Exits shadow 23:17:17 14° 220° (SW) 2,793 4.4 -17.0°
Maximum altitude 23:23:55 85° 135° (SE) 1,237 2.9 -16.9°
Drops below altitude 10° 23:31:50 10° 47° (NE) 3,245 5.9 -16.9°
Sets 23:34:40 0° 47° (NE) 4,221 6.6 -16.9°
